Youngstown, OH

9:36 PM EST on December 08, 2019 (GMT -0500)
Youngstown-Warren Regional

Weather History for KYNG - September, 2019

Change the Weather History Date:

Thursday, September 26, 2019

  Actual Average Record
Temperature  
Mean Temperature 60 °F 58 °F  
Max Temperature 73 °F 68 °F 90 °F (2017)
Min Temperature 46 °F 48 °F 35 °F (1957)
Degree Days  
Heating Degree Days 6 8  
Month to date heating degree days 22 111  
Since 1 July heating degree days 28 149  
Cooling Degree Days 0 1  
Month to date cooling degree days 85 48  
Year to date cooling degree days 749 534  
Growing Degree Days 10 (Base 50)    
Moisture  
Dew Point 51 °F    
Average Humidity 64    
Maximum Humidity 89    
Minimum Humidity 38    
Precipitation  
Precipitation 0.00 in 0.12 in 2.07 in (2005)
Month to date precipitation 4.51 3.28  
Year to date precipitation 39.03 29.50  
Snow  
Snow 0.00 in 0.00 in - ()
Month to date snowfall 0.0 0.0  
Since 1 July snowfall 0.0 0.0  
Since 1 September snowfall 0.0 0.0  
Snow Depth 0.00 in    
Sea Level Pressure  
Sea Level Pressure 29.86 in    
Wind  
Wind Speed 6 mph ()    
Max Wind Speed 21 mph    
Max Gust Speed 26 mph    
Visibility 10.0 miles    
Events      
T = Trace of Precipitation, MM = Missing Value Source: Averaged Metar Reports

Daily Weather History Graph

Daily Weather History Graph

Search for Another Location

Airport or City:

Astronomy

Sep. 26, 2019 Rise Set
Actual Time 7:14 AM EDT 7:13 PM EDT
Civil Twilight 6:46 AM EDT 7:40 PM EDT
Nautical Twilight 6:14 AM EDT 8:13 PM EDT
Astronomical Twilight 5:41 AM EDT 8:45 PM EDT
Moon 4:16 AM EDT (9/26) 6:27 PM EDT (9/26)
Length of Visible Light 12h 54m
Length of Day
11h 59m
Waning Crescent, 7% of the Moon is Illuminated
Sep 26
Waning Crescent
Sep 28
New
Oct 5
First Quarter
Oct 13
Full
Oct 21
Last Quarter

Hourly Weather History & Observations

Time (EDT) Temp. Dew Point Humidity Pressure Visibility Wind Dir Wind Speed Gust Speed Precip Events Conditions
12:51 AM 68.0 °F 50.0 °F 52% 29.78 in 10.0 mi SSW 3.5 mph - N/A   Mostly Cloudy
1:51 AM 64.0 °F 54.0 °F 70% 29.79 in 10.0 mi South 3.5 mph - N/A   Mostly Cloudy
2:51 AM 64.0 °F 54.0 °F 70% 29.77 in 10.0 mi Calm Calm - N/A   Mostly Cloudy
3:51 AM 66.0 °F 52.0 °F 60% 29.75 in 10.0 mi South 5.8 mph - N/A   Overcast
4:51 AM 64.0 °F 53.1 °F 67% 29.74 in 10.0 mi SSW 4.6 mph - N/A   Overcast
5:51 AM 63.0 °F 54.0 °F 72% 29.76 in 10.0 mi WSW 5.8 mph - N/A   Overcast
6:51 AM 64.0 °F 55.0 °F 73% 29.77 in 10.0 mi WSW 8.1 mph - N/A   Overcast
7:51 AM 64.9 °F 55.9 °F 73% 29.79 in 10.0 mi West 10.4 mph - N/A   Overcast
8:51 AM 66.0 °F 57.9 °F 75% 29.81 in 10.0 mi West 8.1 mph - N/A   Overcast
9:51 AM 66.9 °F 60.1 °F 79% 29.82 in 10.0 mi WNW 6.9 mph - N/A   Overcast
10:51 AM 66.0 °F 59.0 °F 78% 29.84 in 10.0 mi WNW 9.2 mph - N/A   Overcast
11:51 AM 70.0 °F 57.9 °F 65% 29.85 in 10.0 mi West 10.4 mph - N/A   Overcast
12:51 PM 72.0 °F 55.0 °F 55% 29.86 in 10.0 mi West 13.8 mph 18.4 mph N/A   Scattered Clouds
1:51 PM 72.0 °F 50.0 °F 46% 29.86 in 10.0 mi WNW 16.1 mph 23.0 mph N/A   Mostly Cloudy
2:51 PM 72.0 °F 48.0 °F 43% 29.87 in 10.0 mi WNW 13.8 mph 23.0 mph N/A   Scattered Clouds
3:51 PM 71.1 °F 45.0 °F 39% 29.88 in 10.0 mi NW 15.0 mph 23.0 mph N/A   Partly Cloudy
4:51 PM 70.0 °F 44.1 °F 39% 29.90 in 10.0 mi NW 17.3 mph - N/A   Scattered Clouds
5:51 PM 68.0 °F 46.0 °F 45% 29.92 in 10.0 mi NW 10.4 mph - N/A   Scattered Clouds
6:51 PM 63.0 °F 46.0 °F 54% 29.96 in 10.0 mi NW 8.1 mph - N/A   Scattered Clouds
7:51 PM 59.0 °F 46.0 °F 62% 29.96 in 10.0 mi NW 4.6 mph - N/A   Partly Cloudy
8:51 PM 53.1 °F 46.9 °F 80% 29.99 in 10.0 mi Calm Calm - N/A   Clear
9:51 PM 55.0 °F 46.0 °F 72% 30.00 in 10.0 mi Calm Calm - N/A   Clear
10:51 PM 48.0 °F 45.0 °F 89% 30.01 in 10.0 mi Calm Calm - N/A   Clear
11:51 PM 48.0 °F 44.1 °F 86% 30.02 in 10.0 mi Calm Calm - N/A   Clear